When you browse on this site, cookies collect data to enhance your experience and personalize the content and advertising you see.
Visit our Privacy Policy to learn more. By continuing to use the site, you agree to this use of cookies and data.
  • en Suisse
  • Liste des pays
  • À 7 jours
  • Température de l'eau
  • Carte météo
  • Widgets météo
  • user-avatar
    Se connecter

    Météo par heure à Nesebyr

    Ce jour, 20 Février, Jeudi

    Heure Température Précipitation Vent Pression Humidité
    00:00 +7°C° 0 mm 1 m/s 761 mmHg 93%
    01:00 +7°C° 0 mm 1 m/s 760 mmHg 92%
    02:00 +8°C° 0 mm 1 m/s 760 mmHg 92%
    03:00 +8°C° 0.1 mm 1 m/s 760 mmHg 92%
    04:00 +8°C° 0.1 mm 1 m/s 760 mmHg 92%
    05:00 +7°C° 0.1 mm 2 m/s 759 mmHg 93%
    06:00 +7°C° 0 mm 2 m/s 760 mmHg 92%
    07:00 +7°C° 0 mm 2 m/s 760 mmHg 92%
    08:00 +7°C° 0 mm 2 m/s 759 mmHg 94%
    09:00 +7°C° 0.1 mm 3 m/s 759 mmHg 92%
    10:00 +7°C° 0.1 mm 3 m/s 759 mmHg 90%
    11:00 +7°C° 0.1 mm 3 m/s 760 mmHg 88%
    12:00 +7°C° 0.3 mm 3 m/s 759 mmHg 88%
    13:00 +7°C° 0.3 mm 3 m/s 759 mmHg 89%
    14:00 +7°C° 0.3 mm 3 m/s 759 mmHg 90%
    15:00 +7°C° 0.4 mm 3 m/s 759 mmHg 90%
    16:00 +5°C° 0.4 mm 3 m/s 759 mmHg 90%
    17:00 +5°C° 0.4 mm 3 m/s 759 mmHg 90%
    18:00 +5°C° 0.1 mm 3 m/s 760 mmHg 91%
    19:00 +5°C° 0.1 mm 4 m/s 760 mmHg 92%
    20:00 +5°C° 0.1 mm 4 m/s 760 mmHg 92%
    21:00 +5°C° 0.1 mm 4 m/s 761 mmHg 92%
    22:00 +5°C° 0.1 mm 5 m/s 761 mmHg 91%
    23:00 +5°C° 0.1 mm 5 m/s 761 mmHg 90%

    Demain, 21 Février, Vendredi

    Heure Température Précipitation Vent Pression Humidité
    00:00 +5°C° 0.1 mm 5 m/s 761 mmHg 91%
    01:00 +5°C° 0.1 mm 5 m/s 761 mmHg 91%
    02:00 +3°C° 0.1 mm 5 m/s 762 mmHg 91%
    03:00 +3°C° 0 mm 5 m/s 762 mmHg 91%
    04:00 +3°C° 0 mm 5 m/s 762 mmHg 91%
    05:00 +3°C° 0 mm 5 m/s 762 mmHg 91%
    06:00 +3°C° 0 mm 5 m/s 763 mmHg 91%
    07:00 +3°C° 0 mm 5 m/s 763 mmHg 90%
    08:00 +3°C° 0 mm 5 m/s 763 mmHg 90%
    15:00 +7°C° 0 mm 4 m/s 764 mmHg 71%
    16:00 +8°C° 0 mm 3 m/s 764 mmHg 72%
    17:00 +7°C° 0 mm 2 m/s 764 mmHg 73%
    18:00 +7°C° 0 mm 2 m/s 764 mmHg 77%
    19:00 +7°C° 0 mm 1 m/s 765 mmHg 81%
    20:00 +6°C° 0 mm 1 m/s 765 mmHg 85%
    21:00 +6°C° 0 mm 1 m/s 765 mmHg 86%
    22:00 +6°C° 0 mm 1 m/s 765 mmHg 86%
    23:00 +5°C° 0 mm 1 m/s 765 mmHg 87%

    Après-demain, 22 Février, Samedi

    Heure Température Précipitation Vent Pression Humidité
    00:00 +5°C° 0 mm 1 m/s 765 mmHg 86%
    01:00 +5°C° 0 mm 1 m/s 765 mmHg 85%
    02:00 +4°C° 0 mm 2 m/s 765 mmHg 85%
    03:00 +4°C° 0 mm 2 m/s 765 mmHg 82%
    04:00 +4°C° 0 mm 2 m/s 765 mmHg 80%
    05:00 +3°C° 0 mm 3 m/s 764 mmHg 78%
    06:00 +3°C° 0 mm 3 m/s 765 mmHg 79%
    07:00 +3°C° 0 mm 3 m/s 765 mmHg 79%
    08:00 +4°C° 0 mm 2 m/s 765 mmHg 80%
    09:00 +4°C° 0 mm 3 m/s 766 mmHg 78%
    10:00 +5°C° 0 mm 3 m/s 766 mmHg 76%
    11:00 +6°C° 0 mm 4 m/s 767 mmHg 73%
    12:00 +6°C° 0.1 mm 4 m/s 767 mmHg 75%
    13:00 +6°C° 0.1 mm 4 m/s 768 mmHg 76%
    14:00 +6°C° 0.1 mm 5 m/s 768 mmHg 77%
    15:00 +6°C° 0.1 mm 5 m/s 768 mmHg 78%
    16:00 +6°C° 0.1 mm 4 m/s 768 mmHg 78%
    17:00 +5°C° 0.1 mm 4 m/s 768 mmHg 79%
    18:00 +5°C° 0.1 mm 3 m/s 769 mmHg 81%
    19:00 +5°C° 0.1 mm 2 m/s 769 mmHg 83%
    20:00 +6°C° 0.1 mm 1 m/s 770 mmHg 86%
    21:00 +5°C° 0 mm 1 m/s 770 mmHg 86%
    22:00 +4°C° 0 mm 2 m/s 770 mmHg 86%
    23:00 +4°C° 0 mm 2 m/s 770 mmHg 86%

    23 Février, Dimanche

    Heure Température Précipitation Vent Pression Humidité
    00:00 +5°C° 0 mm 1 m/s 770 mmHg 86%
    01:00 +4°C° 0 mm 1 m/s 770 mmHg 86%
    02:00 +4°C° 0 mm 1 m/s 769 mmHg 86%
    03:00 +3°C° 0 mm 2 m/s 769 mmHg 86%
    04:00 +2°C° 0 mm 2 m/s 768 mmHg 85%
    05:00 +2°C° 0 mm 2 m/s 768 mmHg 84%
    06:00 +3°C° 0 mm 2 m/s 768 mmHg 83%
    07:00 +3°C° 0 mm 2 m/s 768 mmHg 83%
    08:00 +3°C° 0 mm 2 m/s 768 mmHg 82%
    09:00 +4°C° 0 mm 3 m/s 767 mmHg 73%
    10:00 +7°C° 0 mm 3 m/s 767 mmHg 65%
    11:00 +9°C° 0 mm 3 m/s 767 mmHg 57%
    12:00 +10°C° 0 mm 4 m/s 766 mmHg 55%
    13:00 +10°C° 0 mm 4 m/s 766 mmHg 53%
    14:00 +10°C° 0 mm 5 m/s 765 mmHg 52%
    15:00 +10°C° 0 mm 5 m/s 764 mmHg 54%
    16:00 +10°C° 0 mm 4 m/s 764 mmHg 56%
    17:00 +10°C° 0 mm 4 m/s 763 mmHg 58%
    18:00 +8°C° 0 mm 4 m/s 763 mmHg 61%
    19:00 +7°C° 0 mm 4 m/s 764 mmHg 64%
    20:00 +7°C° 0 mm 3 m/s 764 mmHg 67%
    21:00 +7°C° 0 mm 3 m/s 763 mmHg 67%
    22:00 +7°C° 0 mm 3 m/s 763 mmHg 67%
    23:00 +7°C° 0 mm 3 m/s 763 mmHg 68%

    24 Février, Lundi

    Heure Température Précipitation Vent Pression Humidité
    00:00 +7°C° 0 mm 3 m/s 763 mmHg 69%
    01:00 +7°C° 0 mm 3 m/s 762 mmHg 69%
    02:00 +7°C° 0 mm 3 m/s 762 mmHg 70%
    03:00 +7°C° 0 mm 3 m/s 761 mmHg 70%
    04:00 +7°C° 0 mm 3 m/s 761 mmHg 70%
    05:00 +7°C° 0 mm 3 m/s 760 mmHg 70%
    06:00 +7°C° 0 mm 3 m/s 760 mmHg 69%
    07:00 +7°C° 0 mm 4 m/s 760 mmHg 67%
    08:00 +7°C° 0 mm 4 m/s 759 mmHg 65%
    09:00 +9°C° 0 mm 6 m/s 759 mmHg 60%
    10:00 +11°C° 0 mm 7 m/s 758 mmHg 55%
    11:00 +13°C° 0 mm 8 m/s 758 mmHg 50%
    12:00 +15°C° 0 mm 8 m/s 758 mmHg 49%
    13:00 +16°C° 0 mm 9 m/s 757 mmHg 48%
    14:00 +17°C° 0 mm 10 m/s 757 mmHg 47%
    15:00 +16°C° 0.1 mm 9 m/s 757 mmHg 53%
    16:00 +15°C° 0.1 mm 8 m/s 758 mmHg 58%
    17:00 +12°C° 0.1 mm 7 m/s 759 mmHg 63%
    18:00 +12°C° 0.2 mm 5 m/s 760 mmHg 66%
    19:00 +10°C° 0.2 mm 4 m/s 761 mmHg 68%
    20:00 +9°C° 0.2 mm 2 m/s 762 mmHg 70%
    21:00 +8°C° 0 mm 2 m/s 763 mmHg 69%
    22:00 +9°C° 0 mm 1 m/s 764 mmHg 69%
    23:00 +9°C° 0 mm 1 m/s 765 mmHg 68%

    25 Février, Mardi

    Heure Température Précipitation Vent Pression Humidité
    00:00 +8°C° 0 mm 1 m/s 765 mmHg 71%
    01:00 +8°C° 0 mm 1 m/s 766 mmHg 73%
    02:00 +7°C° 0 mm 1 m/s 766 mmHg 75%
    03:00 +7°C° 0 mm 1 m/s 766 mmHg 77%
    04:00 +6°C° 0 mm 1 m/s 766 mmHg 79%
    05:00 +6°C° 0 mm 1 m/s 766 mmHg 81%
    06:00 +6°C° 0 mm 1 m/s 766 mmHg 79%
    07:00 +6°C° 0 mm 1 m/s 766 mmHg 78%
    08:00 +6°C° 0 mm 1 m/s 766 mmHg 76%
    09:00 +7°C° 0 mm 2 m/s 766 mmHg 70%
    10:00 +9°C° 0 mm 2 m/s 766 mmHg 63%
    11:00 +10°C° 0 mm 3 m/s 766 mmHg 57%
    12:00 +11°C° 0 mm 3 m/s 765 mmHg 56%
    13:00 +12°C° 0 mm 3 m/s 765 mmHg 55%
    14:00 +12°C° 0 mm 4 m/s 764 mmHg 54%
    15:00 +12°C° 0 mm 4 m/s 764 mmHg 56%
    16:00 +12°C° 0 mm 4 m/s 763 mmHg 59%
    17:00 +11°C° 0 mm 4 m/s 762 mmHg 61%
    18:00 +10°C° 0 mm 3 m/s 762 mmHg 62%
    19:00 +9°C° 0 mm 3 m/s 762 mmHg 63%
    20:00 +8°C° 0 mm 3 m/s 762 mmHg 64%
    21:00 +8°C° 0 mm 3 m/s 761 mmHg 62%
    22:00 +7°C° 0 mm 3 m/s 761 mmHg 60%
    23:00 +7°C° 0 mm 2 m/s 760 mmHg 58%
    Voir plus